#timestamp,LO_Frequency,Hit 
1503608415.3,286047013.9,P
1503608435.2,286047005.9,N
1503608455.9,286047008.2,N
1503608475.7,286047012.8,P
1503608495.6,286047002.2,N
1503608515.4,286047001.7,N
1503608535.2,286047003.2,N
1503608555.1,286047003.5,N
1503608556.0,286047003.5,N
1503608575.8,286047002.2,N
1503608595.6,286047004.3,N
1503608615.5,286047003.8,N
1503608635.3,286047006.0,N
1503608655.1,286047004.7,N
1503608675.8,286047003.9,N
1503608695.7,286047002.1,N
1503608715.5,286047001.4,N
1503608735.3,286047001.6,N
1503608755.2,286047002.1,N
1503608775.9,286047002.3,N
1503608795.7,286047001.0,N
1503608815.6,286047000.8,N
1503608835.4,286047001.6,N
1503608855.2,286047004.0,N
1503608875.1,286047003.8,N
1503608876.0,286047003.8,N
1503608895.8,286047002.6,N
1503608915.6,286046998.2,N
1503608935.5,286046998.9,N
1503608955.3,286046996.7,N
1503608975.1,286046998.7,N
1503608995.8,286046997.0,N
1503609015.7,286046997.8,N
1503609035.5,286046995.3,N
1503609055.3,286046996.1,N
1503609075.2,286046996.0,N
1503609095.9,286046993.3,N
1503609115.7,286046995.3,N
1503609135.6,286046997.7,N
1503609155.4,286046994.2,N
1503609175.2,286046989.4,P
1503609195.1,286046982.5,P
1503609196.0,286046982.5,N
1503609215.8,286046981.7,N
1503609235.6,286046978.9,P
1503609255.5,286046993.7,N
1503609275.3,286046997.6,N
1503609295.1,286046998.6,N
1503609315.9,286047002.2,N
1503609335.7,286047000.6,N
1503609355.5,286046999.1,N
1503609375.4,286047000.3,N
1503609395.2,286047000.4,N
1503609415.0,286047004.3,N
1503609415.9,286047004.3,N
1503609435.8,286047005.4,N
1503609455.6,286047002.9,N
1503609475.4,286047002.1,N
1503609495.3,286046999.5,N
1503609515.1,286046995.3,N
1503609516.0,286046995.3,N
1503609535.8,286046996.0,N
1503609555.7,286046998.3,N
1503609575.5,286046997.1,N
1503609595.3,286046996.2,N
1503609615.1,286046997.9,N
1503609635.9,286046999.4,N
1503609655.7,286047002.6,N
1503609675.5,286047002.0,N
1503609695.4,286047002.1,N
1503609715.2,286047002.2,N
1503609735.0,286046998.8,N
1503609735.9,286046998.8,N
1503609755.8,286046998.6,N
1503609775.6,286047000.6,N
1503609795.4,286046999.3,N
1503609815.3,286046998.4,N
1503609835.1,286046998.5,N
1503609836.0,286046998.5,N
1503609855.8,286046999.4,N
1503609875.7,286047000.8,N
1503609895.5,286047004.0,N
1503609915.3,286047006.4,N
1503609935.2,286047010.7,P
1503609955.9,286047013.9,N
1503609975.7,286047010.9,N
1503609995.6,286047013.8,N
1503610015.4,286047013.5,N
1503610035.2,286047011.0,N
1503610055.1,286047008.4,N
1503610056.0,286047008.4,N
1503610075.8,286047010.2,N
1503610095.6,286047012.2,P
1503610115.5,286047000.4,N
1503610135.3,286046997.4,N
1503610155.1,286046992.7,N
1503610175.9,286046993.1,N
1503610195.7,286046994.7,N
1503610215.5,286046992.9,N
1503610235.3,286046994.2,N
1503610255.2,286046995.2,N
1503610275.0,286046996.7,N
1503610275.9,286046996.7,N
1503610295.4,286046998.4,N
1503610315.3,286047000.2,N
1503610335.1,286047002.0,N
1503610336.0,286047002.0,N
1503610355.8,286047003.4,N
1503610375.7,286047007.3,N
1503610395.5,286047006.3,N
1503610415.3,286047008.7,N
1503610435.1,286047012.1,N
1503610455.9,286047011.4,N
1503610475.7,286047009.9,N
1503610495.5,286047009.5,N
1503610515.4,286047014.1,N
1503610535.2,286047015.4,N
1503610555.0,286047012.9,N
1503610555.9,286047012.9,N
1503610575.8,286047011.5,N
1503610595.6,286047013.4,N
1503610615.4,286047013.7,N
1503610635.3,286047011.6,N
1503610655.1,286047012.3,N
1503610675.8,286047010.3,N
1503610695.7,286047008.6,N
1503610715.5,286047008.6,N
1503610735.3,286047010.1,N
1503610755.2,286047014.0,N
1503610775.9,286047012.1,N
1503610795.7,286047015.2,N
1503610815.6,286047013.2,N
1503610835.4,286047011.6,N
1503610855.2,286047012.3,N
1503610875.0,286047007.9,N
1503610875.9,286047007.9,N
1503610895.8,286047010.4,P
1503610915.6,286047000.3,N
1503610935.5,286047000.5,N
1503610955.3,286046999.7,N
1503610975.1,286047002.0,N
1503610995.8,286047005.2,N
1503611015.7,286047008.7,N
1503611035.5,286047011.5,N
1503611055.3,286047009.8,N
1503611075.2,286047008.5,N
1503611095.0,286047006.9,N
1503611095.9,286047006.9,N
1503611115.7,286047005.3,N
1503611135.6,286047003.3,N
1503611155.4,286047004.1,N
1503611175.2,286047003.3,N
1503611195.1,286047003.9,N
1503611196.0,286047003.9,N
1503611215.8,286047001.7,N
1503611235.6,286047003.2,N
1503611255.5,286047003.3,N
1503611275.3,286047004.3,N
1503611295.1,286047004.0,N
1503611315.9,286047001.4,N
1503611335.7,286047002.4,N
1503611355.5,286047000.1,N
1503611375.4,286047000.4,N
1503611395.2,286047002.4,N
1503611415.0,286046999.9,N
1503611415.9,286046999.9,N
1503611435.7,286047001.1,N
1503611455.6,286047000.9,N
1503611475.4,286047000.8,N
1503611495.2,286047001.1,N
1503611515.1,286046998.5,N
1503611516.0,286046998.5,N
1503611535.8,286046998.2,N
1503611555.6,286046998.1,N
1503611575.5,286047001.2,N
1503611595.3,286047001.2,N
1503611615.1,286047000.8,N
1503611635.9,286046997.4,N
1503611655.7,286046995.9,N
1503611675.5,286046996.0,N
1503611695.4,286046997.3,N
1503611715.2,286046995.3,N
1503611735.0,286046993.8,N
1503611735.9,286046993.8,N
1503611755.8,286046989.3,P
1503611775.6,286046984.3,P
1503611795.4,286046984.4,N
1503611815.3,286046989.0,N
1503611835.1,286046989.0,N
1503611836.0,286046989.0,N
1503611855.8,286046991.0,N
1503611875.7,286046993.0,N
1503611895.5,286046994.1,N
1503611915.3,286046996.4,N
1503611935.2,286046994.9,N
1503611955.9,286046998.0,N
1503611975.7,286046996.8,N
1503611995.6,286046996.6,N
